Location: ?????????
(38.0736°N, 23.2119°E)
Time: 03:52:21
(UTC+00:00)

Okean 1 Rocket - Pass Details

Date: 18 April 2024
Orbit: 603 x 631 km, 82.5° (Epoch: 20 May)

Event Time Altitude Azimuth Distance (km) Brightness Sun altitude
Exits shadow 19:06:45 57° 176° (S) 743 3.2 -22.2°
Maximum altitude 19:07:38 83° 98° (E) 638 2.9 -22.3°
Drops below altitude 10° 19:12:08 10° 9° (N) 2,018 6.0 -23.0°
Sets 19:14:23 0° 9° (N) 2,932 6.9 -23.4°
